| time (UTC) | temp F | wind direction | speed MPH | gust MPH | rain 1hr in | rain 24hr in | rain mn in | humidity % | barometer mb |
| 20260502195607 | 60 | 178 | 9.0 | 18.0 | 0.00 | 0.00 | 0.00 | 50 | 1019.0 |
| 20260502194607 | 60 | 178 | 9.0 | 18.0 | 0.00 | 0.00 | 0.00 | 51 | 1019.0 |
| 20260502193607 | 60 | 178 | 9.0 | 18.0 | 0.00 | 0.00 | 0.00 | 51 | 1019.0 |
| 20260502192607 | 63 | 172 | 10.0 | 18.0 | 0.00 | 0.00 | 0.00 | 43 | 1019.0 |
| 20260502191607 | 65 | 172 | 10.0 | 18.0 | 0.00 | 0.00 | 0.00 | 40 | 1019.0 |
| 20260502190607 | 65 | 172 | 10.0 | 18.0 | 0.00 | 0.00 | 0.00 | 46 | 1019.0 |
| 20260502185607 | 65 | 172 | 10.0 | 18.0 | 0.00 | 0.00 | 0.00 | 44 | 1019.0 |
| 20260502184607 | 65 | 172 | 10.0 | 18.0 | 0.00 | 0.00 | 0.00 | 44 | 1019.0 |
| 20260502183607 | 69 | 165 | 10.0 | 19.0 | 0.00 | 0.00 | 0.00 | 33 | 1018.0 |
| 20260502182608 | 69 | 165 | 10.0 | 19.0 | 0.00 | 0.00 | 0.00 | 33 | 1018.0 |
| 20260502181608 | 70 | 165 | 10.0 | 19.0 | 0.00 | 0.00 | 0.00 | 38 | 1018.0 |
| 20260502180608 | 71 | 165 | 10.0 | 19.0 | 0.00 | 0.00 | 0.00 | 48 | 1019.0 |
| 20260502163608 | 74 | 161 | 9.0 | 18.0 | 0.00 | 0.00 | 0.00 | 44 | 1019.0 |
| 20260502162608 | 76 | 162 | 10.0 | 17.0 | 0.00 | 0.00 | 0.00 | 26 | 1019.0 |
| 20260502161608 | 76 | 162 | 10.0 | 17.0 | 0.00 | 0.00 | 0.00 | 26 | 1019.0 |
| 20260502160608 | 76 | 162 | 10.0 | 17.0 | 0.00 | 0.00 | 0.00 | 36 | 1019.0 |
| 20260502151608 | 77 | 166 | 10.0 | 11.0 | 0.00 | 0.00 | 0.00 | 26 | 1020.0 |
| 20260502150608 | 77 | 166 | 10.0 | 11.0 | 0.00 | 0.00 | 0.00 | 34 | 1020.0 |
| 20260502130607 | 77 | 176 | 9.0 | 10.0 | 0.00 | 0.00 | 0.00 | 31 | 1022.0 |
| 20260502123607 | 77 | 177 | 8.0 | 9.0 | 0.00 | 0.00 | 0.00 | 31 | 1022.0 |
| 20260502122436 | 76 | 188 | 7.0 | 8.0 | 0.00 | 0.00 | 0.00 | 27 | 1022.0 |
| 20260502121452 | 76 | 188 | 7.0 | 8.0 | 0.00 | 0.00 | 0.00 | 27 | 1022.0 |
| 20260502120602 | 76 | 188 | 7.0 | 8.0 | 0.00 | 0.00 | 0.00 | 32 | 1022.0 |
| 20260502113609 | 76 | 188 | 7.0 | 8.0 | 0.00 | 0.00 | 0.00 | 32 | 1022.0 |
| 20260502112459 | 75 | 201 | 6.0 | 8.0 | 0.00 | 0.00 | 0.00 | 29 | 1023.0 |
| 20260502111459 | 75 | 201 | 6.0 | 8.0 | 0.00 | 0.00 | 0.00 | 35 | 1023.0 |
| 20260502110459 | 75 | 201 | 6.0 | 8.0 | 0.00 | 0.00 | 0.00 | 35 | 1023.0 |
| 20260502105459 | 75 | 201 | 6.0 | 8.0 | 0.00 | 0.00 | 0.00 | 35 | 1023.0 |
| 20260502104459 | 75 | 201 | 6.0 | 8.0 | 0.00 | 0.00 | 0.00 | 35 | 1023.0 |
| 20260502103459 | 74 | 215 | 6.0 | 7.0 | 0.00 | 0.00 | 0.00 | 31 | 1023.0 |
| 20260502102459 | 74 | 215 | 6.0 | 7.0 | 0.00 | 0.00 | 0.00 | 31 | 1023.0 |
| 20260502101459 | 74 | 215 | 6.0 | 7.0 | 0.00 | 0.00 | 0.00 | 38 | 1023.0 |
| 20260502100459 | 74 | 215 | 6.0 | 7.0 | 0.00 | 0.00 | 0.00 | 38 | 1023.0 |
| 20260502091459 | 71 | 226 | 5.0 | 6.0 | 0.00 | 0.00 | 0.00 | 43 | 1024.0 |
| 20260502090459 | 71 | 226 | 5.0 | 6.0 | 0.00 | 0.00 | 0.00 | 43 | 1024.0 |
| 20260502071459 | 62 | 253 | 5.0 | 6.0 | 0.00 | 0.00 | 0.00 | 57 | 1024.0 |
| 20260502070459 | 63 | 253 | 5.0 | 6.0 | 0.00 | 0.00 | 0.00 | 55 | 1024.0 |
| 20260502065459 | 62 | 237 | 5.0 | 6.0 | 0.00 | 0.00 | 0.00 | 57 | 1024.0 |
| 20260502064459 | 61 | 237 | 5.0 | 6.0 | 0.00 | 0.00 | 0.00 | 58 | 1024.0 |
| 20260502063459 | 59 | 249 | 4.0 | 5.0 | 0.00 | 0.00 | 0.00 | 58 | 1024.0 |
| 20260502062459 | 59 | 249 | 4.0 | 5.0 | 0.00 | 0.00 | 0.00 | 58 | 1024.0 |
| 20260502061459 | 57 | 249 | 4.0 | 5.0 | 0.00 | 0.00 | 0.00 | 63 | 1024.0 |
| 20260502060459 | 57 | 249 | 4.0 | 5.0 | 0.00 | 0.00 | 0.00 | 63 | 1024.0 |
| 20260502055459 | 57 | 249 | 4.0 | 5.0 | 0.00 | 0.00 | 0.00 | 63 | 1024.0 |
| 20260502054459 | 57 | 249 | 4.0 | 5.0 | 0.00 | 0.00 | 0.00 | 67 | 1024.0 |
| 20260502053459 | 56 | 249 | 4.0 | 5.0 | 0.00 | 0.00 | 0.00 | 68 | 1024.0 |
| 20260502052459 | 52 | 255 | 4.0 | 5.0 | 0.00 | 0.00 | 0.00 | 71 | 1024.0 |
| 20260502051459 | 50 | 255 | 4.0 | 5.0 | 0.00 | 0.00 | 0.00 | 74 | 1024.0 |
| 20260502050459 | 51 | 255 | 4.0 | 5.0 | 0.00 | 0.00 | 0.00 | 77 | 1024.0 |
| 20260502045459 | 51 | 255 | 4.0 | 5.0 | 0.00 | 0.00 | 0.00 | 77 | 1024.0 |
| 20260502044459 | 50 | 255 | 4.0 | 5.0 | 0.00 | 0.00 | 0.00 | 78 | 1024.0 |
| 20260502043459 | 45 | 260 | 4.0 | 4.0 | 0.00 | 0.00 | 0.00 | 83 | 1024.0 |
| 20260502042459 | 45 | 260 | 4.0 | 4.0 | 0.00 | 0.00 | 0.00 | 83 | 1024.0 |
| 20260502041459 | 44 | 260 | 4.0 | 4.0 | 0.00 | 0.00 | 0.00 | 84 | 1023.0 |
| 20260502040459 | 45 | 260 | 4.0 | 4.0 | 0.00 | 0.00 | 0.00 | 82 | 1024.0 |
| 20260502035459 | 45 | 260 | 4.0 | 4.0 | 0.00 | 0.00 | 0.00 | 82 | 1024.0 |
| 20260502034459 | 45 | 260 | 4.0 | 4.0 | 0.00 | 0.00 | 0.00 | 82 | 1024.0 |
| 20260502033459 | 43 | 255 | 4.0 | 4.0 | 0.00 | 0.00 | 0.00 | 85 | 1024.0 |
| 20260502032459 | 43 | 255 | 4.0 | 4.0 | 0.00 | 0.00 | 0.00 | 84 | 1023.0 |
| 20260502031459 | 43 | 255 | 4.0 | 4.0 | 0.00 | 0.00 | 0.00 | 84 | 1023.0 |
| 20260502030459 | 44 | 255 | 4.0 | 4.0 | 0.00 | 0.00 | 0.00 | 82 | 1024.0 |
| 20260502025459 | 44 | 255 | 4.0 | 4.0 | 0.00 | 0.00 | 0.00 | 82 | 1024.0 |
| 20260502024459 | 44 | 255 | 4.0 | 4.0 | 0.00 | 0.00 | 0.00 | 82 | 1024.0 |
| 20260502023459 | 44 | 255 | 4.0 | 4.0 | 0.00 | 0.00 | 0.00 | 82 | 1024.0 |
| 20260502022459 | 44 | 239 | 3.0 | 4.0 | 0.00 | 0.00 | 0.00 | 83 | 1024.0 |
| 20260502021459 | 44 | 239 | 3.0 | 4.0 | 0.00 | 0.00 | 0.00 | 82 | 1024.0 |
| 20260502020459 | 45 | 239 | 3.0 | 4.0 | 0.00 | 0.00 | 0.00 | 81 | 1024.0 |
| 20260502015459 | 45 | 239 | 3.0 | 4.0 | 0.00 | 0.00 | 0.00 | 80 | 1024.0 |
| 20260502014459 | 45 | 239 | 3.0 | 4.0 | 0.00 | 0.00 | 0.00 | 80 | 1024.0 |
| 20260502013459 | 45 | 239 | 3.0 | 4.0 | 0.00 | 0.00 | 0.00 | 80 | 1024.0 |
| 20260502012459 | 45 | 217 | 3.0 | 4.0 | 0.00 | 0.00 | 0.00 | 79 | 1024.0 |
| 20260502011459 | 45 | 217 | 3.0 | 4.0 | 0.00 | 0.00 | 0.00 | 80 | 1025.0 |
| 20260502010459 | 45 | 217 | 3.0 | 4.0 | 0.00 | 0.00 | 0.00 | 80 | 1025.0 |
| 20260502005459 | 45 | 5 | 1.0 | 2.0 | 0.00 | 0.00 | 0.00 | 80 | 1025.0 |
| 20260502004459 | 45 | 5 | 1.0 | 2.0 | 0.00 | 0.00 | 0.00 | 79 | 1025.0 |
| 20260502003459 | 45 | 5 | 1.0 | 2.0 | 0.00 | 0.00 | 0.00 | 79 | 1025.0 |
| 20260502002459 | 46 | 20 | 2.0 | 2.0 | 0.00 | 0.00 | 0.00 | 78 | 1025.0 |
| 20260502001459 | 47 | 20 | 2.0 | 2.0 | 0.00 | 0.00 | 0.00 | 79 | 1025.0 |
| 20260502000459 | 47 | 20 | 2.0 | 2.0 | 0.00 | 0.00 | 0.00 | 79 | 1025.0 |
| 20260501235500 | 47 | 20 | 2.0 | 2.0 | 0.00 | 0.00 | 0.00 | 79 | 1025.0 |
| 20260501234500 | 47 | 20 | 2.0 | 2.0 | 0.00 | 0.00 | 0.00 | 79 | 1025.0 |
| 20260501233500 | 47 | 14 | 3.0 | 3.0 | 0.00 | 0.00 | 0.00 | 75 | 1025.0 |
| 20260501232500 | 47 | 14 | 3.0 | 3.0 | 0.00 | 0.00 | 0.00 | 75 | 1025.0 |
| 20260501231500 | 48 | 14 | 3.0 | 3.0 | 0.00 | 0.00 | 0.00 | 74 | 1025.0 |
| 20260501230500 | 48 | 14 | 3.0 | 3.0 | 0.00 | 0.00 | 0.00 | 75 | 1026.0 |
| 20260501225500 | 49 | 14 | 3.0 | 3.0 | 0.00 | 0.00 | 0.00 | 73 | 1026.0 |
| 20260501224500 | 49 | 14 | 3.0 | 3.0 | 0.00 | 0.00 | 0.00 | 72 | 1026.0 |
| 20260501223500 | 49 | 14 | 3.0 | 3.0 | 0.00 | 0.00 | 0.00 | 72 | 1026.0 |
| 20260501222500 | 50 | 338 | 5.0 | 6.0 | 0.00 | 0.00 | 0.00 | 67 | 1025.0 |
| 20260501221500 | 50 | 338 | 5.0 | 6.0 | 0.00 | 0.00 | 0.00 | 66 | 1025.0 |
| 20260501220500 | 51 | 338 | 5.0 | 6.0 | 0.00 | 0.00 | 0.00 | 70 | 1026.0 |
| 20260501215500 | 51 | 338 | 5.0 | 6.0 | 0.00 | 0.00 | 0.00 | 70 | 1026.0 |
| 20260501214500 | 51 | 338 | 5.0 | 6.0 | 0.00 | 0.00 | 0.00 | 70 | 1026.0 |
| 20260501213500 | 51 | 338 | 5.0 | 6.0 | 0.00 | 0.00 | 0.00 | 69 | 1026.0 |
| 20260501212500 | 52 | 288 | 6.0 | 7.0 | 0.00 | 0.00 | 0.00 | 64 | 1025.0 |
| 20260501211500 | 53 | 288 | 6.0 | 7.0 | 0.00 | 0.00 | 0.00 | 63 | 1025.0 |
| 20260501210500 | 54 | 288 | 6.0 | 7.0 | 0.00 | 0.00 | 0.00 | 65 | 1026.0 |
| 20260501205500 | 55 | 288 | 6.0 | 7.0 | 0.00 | 0.00 | 0.00 | 64 | 1026.0 |
| 20260501204500 | 55 | 288 | 6.0 | 7.0 | 0.00 | 0.00 | 0.00 | 64 | 1026.0 |
| 20260501203500 | 55 | 261 | 5.0 | 6.0 | 0.00 | 0.00 | 0.00 | 60 | 1025.0 |
| 20260501202500 | 57 | 261 | 5.0 | 6.0 | 0.00 | 0.00 | 0.00 | 54 | 1026.0 |
| 20260501201500 | 57 | 261 | 5.0 | 6.0 | 0.00 | 0.00 | 0.00 | 54 | 1026.0 |
| 20260501200500 | 57 | 261 | 5.0 | 6.0 | 0.00 | 0.00 | 0.00 | 56 | 1026.0 |